Weather in Nyr

Russia / Kirov Oblast     57°29′25″N   47°57′09″E
temp.,
°C
wind,
m/s
gust,
m/s
humid.,
%
clouds,
%
prec.,
mm/h
press.,
hPa
HPBL,
m
13 may, thu
thu1300:00+15se46635 0.0 102587
03:00+13ese00765 0.0 102610
06:00+17ese236712 0.0 102590
09:00+22se355130 0.0 1024552
12:00+25sse57405 0.0 10231942
15:00+22sse475188 0.0 1022248
18:00+20sse51064100 0.0 1022259
21:00+19se5156469 0.0 1020369
14 may, fri
fri1400:00+16sse5148067 1.3 1020337
03:00+15s41186100 1.7 1020270
06:00+16s378477 0.1 1020267
09:00+20ssw3572100 0.1 1020615
12:00+23sw4560100 0.0 10201302
15:00+24sw4554100 0.0 10201547
18:00+23wsw23655 0.0 1019135
21:00+18ssw1177100 0.0 101911
15 may, sat
sat1500:00+17s2282100 0.0 101911
03:00+16se3388100 0.3 101931
06:00+18se3782100 0.8 1018216
09:00+22s4764100 0.8 1017458
12:00+26s6943100 0.0 10161022
15:00+27s7134131 0.0 10161313
18:00+23s61352100 0.0 1015423
21:00+19s615613 0.0 1015308
16 may, sun
sun1600:00+17ssw5146921 0.0 1015323
03:00+15s4117798 0.0 1015217
06:00+17ssw497714 0.0 1015258
09:00+22sw586465 0.0 1015822
12:00+24sw6854100 0.0 10151331
15:00+25sw685187 0.0 10151604
18:00+23wsw366347 0.0 1014209
21:00+17w368360 1.3 1015127
17 may, mon
mon1700:00+15wsw348685 0.9 101557
03:00+13wsw33900 0.9 101735
06:00+16w23790 0.0 1017136
09:00+21wsw23622 0.0 1018742
12:00+24wsw345119 0.0 10181685
15:00+24sw344660 0.0 10181708
18:00+23ssw226098 0.0 101856
21:00+18s016580 0.0 101811